Saginaw Browne, MI

4:13 PM EST on December 11, 2017 (GMT -0500)
Saginaw County-Browne

Weather History for KHYX - March, 2013

Change the Weather History Date:

Friday, March 1, 2013

  Actual Average (KMBS) Record (KMBS)
Temperature  
Mean Temperature 26 °F -  
Max Temperature 28 °F 32 °F 53 °F (2017)
Min Temperature 23 °F 19 °F 9 °F (2009)
Degree Days  
Heating Degree Days 40    
Moisture  
Dew Point 21 °F    
Average Humidity 80    
Maximum Humidity 86    
Minimum Humidity 74    
Precipitation  
Precipitation 0.00 in - - ()
Sea Level Pressure  
Sea Level Pressure 30.07 in    
Wind  
Wind Speed 12 mph (North)    
Max Wind Speed 16 mph    
Max Gust Speed 20 mph    
Visibility 10 miles    
Events Snow    
Averages and records for this station are not official NWS values.
T = Trace of Precipitation, MM = Missing Value Source: NWS Daily Summary

Daily Weather History Graph

Daily Weather History Graph

Search for Another Location

Airport or City:

Trip Planner

Search our weather history database for the weather conditions in past years. The results will help you decide how hot, cold, wet, or windy it might be!

Date:

Astronomy

Mar. 01, 2013 Rise Set
Actual Time 7:11 AM EST 6:24 PM EST
Civil Twilight 6:42 AM EST 6:53 PM EST
Nautical Twilight 6:09 AM EST 7:26 PM EST
Astronomical Twilight 5:36 AM EST 7:59 PM EST
Moon 11:06 PM EST (3/1) 8:48 AM EST (3/1)
Length of Visible Light 12h 10m
Length of Day
11h 13m
Waning Gibbous, 83% of the Moon is Illuminated
Mar 1
Waning Gibbous
Mar 4
Last Quarter
Mar 11
New
Mar 19
First Quarter
Mar 27
Full

Hourly Weather History & Observations

Time (EST) Temp. Windchill Dew Point Humidity Pressure Visibility Wind Dir Wind Speed Gust Speed Precip Events Conditions
12:14 AM 28.4 °F 18.0 °F 24.8 °F 86% 29.99 in 10.0 mi North 12.7 mph 18.4 mph N/A   Overcast
12:34 AM 28.4 °F 19.7 °F 23.0 °F 80% 29.99 in 10.0 mi North 9.2 mph - N/A   Overcast
12:54 AM 28.4 °F 17.5 °F 23.0 °F 80% 29.99 in 10.0 mi North 13.8 mph 18.4 mph N/A   Overcast
1:14 AM 28.4 °F 18.5 °F 23.0 °F 80% 30.00 in 10.0 mi North 11.5 mph - N/A   Overcast
1:34 AM 28.4 °F 18.0 °F 23.0 °F 80% 30.00 in 10.0 mi North 12.7 mph 18.4 mph N/A   Overcast
1:54 AM 28.4 °F 18.0 °F 23.0 °F 80% 30.00 in 10.0 mi North 12.7 mph - N/A   Overcast
2:14 AM 28.4 °F 18.0 °F 23.0 °F 80% 30.01 in 10.0 mi North 12.7 mph - N/A   Overcast
2:34 AM 28.4 °F 18.0 °F 23.0 °F 80% 30.01 in 10.0 mi North 12.7 mph - N/A   Overcast
2:54 AM 28.4 °F 17.5 °F 23.0 °F 80% 30.01 in 10.0 mi North 13.8 mph 19.6 mph N/A   Overcast
3:14 AM 28.4 °F 17.0 °F 23.0 °F 80% 30.01 in 10.0 mi North 15.0 mph - N/A   Overcast
3:35 AM 28.4 °F 19.1 °F 23.0 °F 80% 30.01 in 10.0 mi North 10.4 mph - N/A   Overcast
4:15 AM 26.6 °F 15.2 °F 23.0 °F 86% 30.02 in 10.0 mi North 13.8 mph - N/A Snow Light Snow
4:55 AM 26.6 °F 15.2 °F 21.2 °F 80% 30.03 in 10.0 mi North 13.8 mph - N/A   Overcast
5:15 AM 26.6 °F 15.2 °F 21.2 °F 80% 30.04 in 10.0 mi North 13.8 mph 19.6 mph N/A   Overcast
5:31 AM 24.8 °F 12.4 °F 19.4 °F 80% 30.04 in 10.0 mi North 15.0 mph 19.6 mph N/A   Overcast
5:51 AM 24.8 °F 14.0 °F 21.2 °F 86% 30.04 in 10.0 mi North 11.5 mph - N/A   Overcast
6:11 AM 24.8 °F 13.4 °F 19.4 °F 80% 30.04 in 10.0 mi North 12.7 mph - N/A   Overcast
6:31 AM 24.8 °F 14.0 °F 21.2 °F 86% 30.05 in 10.0 mi North 11.5 mph - N/A   Overcast
6:51 AM 24.8 °F 12.9 °F 21.2 °F 86% 30.05 in 7.0 mi North 13.8 mph - N/A Snow Light Snow
7:11 AM 23.0 °F 12.4 °F 19.4 °F 86% 30.06 in 7.0 mi North 10.4 mph - N/A Snow Light Snow
7:31 AM 23.0 °F 11.1 °F 19.4 °F 86% 30.06 in 7.0 mi North 12.7 mph - N/A Snow Light Snow
7:51 AM 23.0 °F 10.6 °F 19.4 °F 86% 30.07 in 10.0 mi North 13.8 mph - N/A Snow Light Snow
8:32 AM 23.0 °F 10.1 °F 19.4 °F 86% 30.09 in 10.0 mi North 15.0 mph - N/A Snow Light Snow
8:52 AM 23.0 °F 10.1 °F 19.4 °F 86% 30.09 in 10.0 mi North 15.0 mph - N/A   Overcast
9:12 AM 23.0 °F 10.1 °F 19.4 °F 86% 30.09 in 7.0 mi North 15.0 mph 18.4 mph N/A Snow Light Snow
9:32 AM 23.0 °F 10.6 °F 19.4 °F 86% 30.09 in 10.0 mi North 13.8 mph 19.6 mph N/A   Overcast
9:52 AM 23.0 °F 11.1 °F 19.4 °F 86% 30.09 in 10.0 mi North 12.7 mph 17.3 mph N/A   Overcast
10:12 AM 23.0 °F 11.1 °F 19.4 °F 86% 30.10 in 10.0 mi North 12.7 mph 17.3 mph N/A   Overcast
10:32 AM 23.0 °F 11.7 °F 19.4 °F 86% 30.10 in 10.0 mi North 11.5 mph 18.4 mph N/A   Overcast
11:12 AM 24.8 °F 14.6 °F 19.4 °F 80% 30.10 in 10.0 mi North 10.4 mph - N/A   Overcast
11:32 AM 24.8 °F 14.0 °F 21.2 °F 86% 30.10 in 10.0 mi NNW 11.5 mph - N/A   Overcast
11:53 AM 26.6 °F 17.5 °F 21.2 °F 80% 30.10 in 10.0 mi North 9.2 mph - N/A   Overcast
12:13 PM 26.6 °F 16.2 °F 21.2 °F 80% 30.11 in 10.0 mi North 11.5 mph - N/A   Overcast
12:33 PM 26.6 °F 15.7 °F 21.2 °F 80% 30.10 in 10.0 mi North 12.7 mph - N/A   Overcast
1:13 PM 26.6 °F 14.3 °F 21.2 °F 80% 30.09 in 10.0 mi North 16.1 mph - N/A   Overcast
1:33 PM 26.6 °F 14.7 °F 21.2 °F 80% 30.09 in 10.0 mi North 15.0 mph - N/A   Overcast
1:53 PM 26.6 °F 14.7 °F 21.2 °F 80% 30.09 in 10.0 mi North 15.0 mph - N/A   Overcast
2:13 PM 28.4 °F 19.1 °F 21.2 °F 74% 30.08 in 10.0 mi North 10.4 mph - N/A   Overcast
2:33 PM 28.4 °F 19.1 °F 21.2 °F 74% 30.08 in 10.0 mi North 10.4 mph - N/A   Overcast
2:53 PM 28.4 °F 20.4 °F 21.2 °F 74% 30.08 in 10.0 mi North 8.1 mph - N/A   Overcast
3:14 PM 28.4 °F 19.1 °F 21.2 °F 74% 30.07 in 10.0 mi NNE 10.4 mph - N/A   Overcast
3:34 PM 28.4 °F 18.5 °F 21.2 °F 74% 30.07 in 10.0 mi NNE 11.5 mph - N/A   Overcast
3:54 PM 28.4 °F 18.5 °F 21.2 °F 74% 30.08 in 10.0 mi North 11.5 mph - N/A   Overcast
4:14 PM 28.4 °F 18.5 °F 21.2 °F 74% 30.08 in 10.0 mi North 11.5 mph - N/A   Overcast
4:34 PM 28.4 °F 19.1 °F 21.2 °F 74% 30.08 in 10.0 mi North 10.4 mph - N/A   Overcast
4:54 PM 28.4 °F 24.6 °F 21.2 °F 74% 30.08 in 10.0 mi North 3.5 mph - N/A   Overcast
5:14 PM 28.4 °F 24.6 °F 21.2 °F 74% 30.09 in 10.0 mi North 3.5 mph - N/A   Overcast
5:35 PM 28.4 °F 19.1 °F 21.2 °F 74% 30.09 in 10.0 mi North 10.4 mph - N/A   Overcast
5:55 PM 28.4 °F 20.4 °F 21.2 °F 74% 30.09 in 10.0 mi North 8.1 mph - N/A   Overcast
6:15 PM 28.4 °F 21.2 °F 21.2 °F 74% 30.10 in 10.0 mi North 6.9 mph - N/A   Overcast
6:35 PM 28.4 °F 21.2 °F 21.2 °F 74% 30.11 in 10.0 mi North 6.9 mph - N/A   Overcast
6:55 PM 28.4 °F 19.7 °F 21.2 °F 74% 30.11 in 10.0 mi North 9.2 mph - N/A   Overcast
7:15 PM 26.6 °F 18.2 °F 21.2 °F 80% 30.12 in 10.0 mi NNE 8.1 mph - N/A   Overcast
7:35 PM 26.6 °F 20.0 °F 23.0 °F 86% 30.12 in 10.0 mi NNE 5.8 mph - N/A   Overcast
7:55 PM 26.6 °F 16.8 °F 21.2 °F 80% 30.12 in 10.0 mi North 10.4 mph - N/A   Overcast
8:15 PM 26.6 °F 14.7 °F 21.2 °F 80% 30.12 in 10.0 mi North 15.0 mph - N/A   Overcast
8:35 PM 26.6 °F 15.7 °F 21.2 °F 80% 30.12 in 10.0 mi North 12.7 mph 17.3 mph N/A   Overcast
8:50 PM 26.6 °F 16.2 °F 21.2 °F 80% 30.12 in 10.0 mi North 11.5 mph - N/A   Overcast
9:11 PM 26.6 °F 19.1 °F 19.4 °F 74% 30.13 in 10.0 mi North 6.9 mph - N/A   Overcast
9:31 PM 26.6 °F 19.1 °F 19.4 °F 74% 30.13 in 10.0 mi North 6.9 mph - N/A   Overcast
9:51 PM 26.6 °F 18.2 °F 19.4 °F 74% 30.12 in 10.0 mi NNW 8.1 mph - N/A   Overcast
10:11 PM 26.6 °F 16.8 °F 19.4 °F 74% 30.12 in 10.0 mi NNW 10.4 mph - N/A   Overcast
10:31 PM 26.6 °F 16.2 °F 19.4 °F 74% 30.12 in 10.0 mi NNW 11.5 mph - N/A   Overcast
10:51 PM 26.6 °F 16.2 °F 19.4 °F 74% 30.11 in 10.0 mi NNW 11.5 mph 18.4 mph N/A   Overcast
11:11 PM 26.6 °F 16.8 °F 19.4 °F 74% 30.11 in 10.0 mi NNW 10.4 mph - N/A   Overcast
11:32 PM 24.8 °F 15.3 °F 19.4 °F 80% 30.11 in 10.0 mi NNW 9.2 mph - N/A   Overcast
11:52 PM 24.8 °F 14.6 °F 19.4 °F 80% 30.10 in 10.0 mi NNW 10.4 mph - N/A   Overcast